Accueil
METAR-TAF:

METAR-TAF

Aéroports :

Alpnach, Suisse

latitude: 46-56-19N, longitude: 8-17-03E, altitude: 440 m

Observation

Le bulletin a été fait il y a 1 heure et 8 minutes, à 00:50 UTC
Vent 2 kt de direction variable
Température 22°C
Humidité 83%
Pression 1020 hPa
Visibilité 10 km ou plus
Nuages épars à une hauteur de 7600 ft

METAR: LSMA 240050Z AUTO VRB02KT 9999NDV SCT076 22/19 Q1020 RMK

Heure: 03:58 (01:58 UTC)


TAF: absent

Observations et prévisions météorologiques de plus de 4000 aéroports (messages METAR et TAF).

Les stations disponibles sont représentées par des disques jaunes et rouges sur la carte.

Passer la souris dessus pour voir le nom de la station.

Cliquer dessus pour voir les observations et prévisions météorologiques.

Pour changer de carte: cliquez sur les boutons verts avec une croix noire pour zoomer, sur le bouton vert avec un tiret pour effectuer un zoom arrière, ou sur les flèches vertes pour les cartes adjacentes.


METAR-TAF: